This is the latest recevied weather packets stored in our database for station/object KE0WPC. If no packets are shown the sender has not sent any weather packets the latest 10 day(s).
| Time | Temp. | Humidity | Pressure | Rain* | Wind** | Luminosity | Snow |
|---|---|---|---|---|---|---|---|
| 1777838900 | 21.11° C | 23% | 1010.1 hPa | - | - | - | - |
| 1777838595 | 21.11° C | 24% | 1010.4 hPa | - | - | - | - |
| 1777838294 | 21.11° C | 25% | 1010.7 hPa | - | - | - | - |
| 1777837990 | 20.56° C | 24% | 1010.7 hPa | - | - | - | - |
| 1777837687 | 21.11° C | 23% | 1010.7 hPa | - | - | - | - |
| 1777837383 | 21.11° C | 24% | 1010.7 hPa | - | - | - | - |
| 1777837079 | 21.11° C | 24% | 1010.7 hPa | - | - | - | - |
| 1777836775 | 20.56° C | 25% | 1010.7 hPa | - | - | - | - |
| 1777836471 | 20.56° C | 25% | 1011.1 hPa | - | - | - | - |
| 1777836167 | 20.56° C | 25% | 1011.1 hPa | - | - | - | - |
| 1777835863 | 20.56° C | 28% | 1011.1 hPa | - | - | - | - |
| 1777835560 | 20.56° C | 28% | 1011.1 hPa | - | - | - | - |
| 1777835257 | 20.56° C | 28% | 1011.1 hPa | - | - | - | - |
| 1777834953 | 20.56° C | 28% | 1011.1 hPa | - | - | - | - |
| 1777834651 | 20.56° C | 28% | 1011.1 hPa | - | - | - | - |
| 1777834346 | 20.56° C | 26% | 1011.1 hPa | - | - | - | - |
| 1777834041 | 20.56° C | 29% | 1011.1 hPa | - | - | - | - |
| 1777833737 | 20° C | 29% | 1011.5 hPa | - | - | - | - |
| 1777833434 | 20° C | 28% | 1011.5 hPa | - | - | - | - |
| 1777833131 | 20° C | 28% | 1011.5 hPa | - | - | - | - |
| 1777832829 | 20° C | 29% | 1011.1 hPa | - | - | - | - |
| 1777832528 | 20° C | 31% | 1011.1 hPa | - | - | - | - |
| 1777832224 | 19.44° C | 29% | 1011.9 hPa | - | - | - | - |
| 1777831921 | 19.44° C | 29% | 1011.9 hPa | - | - | - | - |
| 1777831617 | 19.44° C | 28% | 1011.9 hPa | - | - | - | - |
* Rain since midnight (hover to see other rain measurements)
** Current wind speed in m/s (hover to see current wind gust speed)